Temperature
20 19 20 20 19 19 19 19 19 19 19 19 19 19 19 19 19 19 19 19 19 19 19 19 19 19 19 19 19 19 19 19 19 18 18 18 18 18 18 18 18 17 18
20 19 20 19 19 19 19 19 19 19 19 19 19 19 19 19 19 19 19 19 19 19 19 19 19 19 19 19 19 19 19 19 18 18 18 18 18 18 18 18 17 18 18
20 19 19 19 19 19 19 19 19 19 19 19 19 19 19 19 19 19 19 19 19 19 19 19 19 19 19 19 19 18 18 18 18 18 18 17 18 18 18 18 18 18 18
20 19 19 19 19 19 19 19 19 19 19 19 19 19 19 19 19 19 19 19 19 19 19 19 19 18 18 19 18 18 18 18 18 18 18 18 17 18 18 18 18 18 18
20 19 19 19 19 19 19 19 19 19 19 19 19 19 19 19 19 19 19 19 18 18 19 19 18 18 18 18 18 18 18 18 18 18 17 17 17 18 18 18 18 18 18
20 19 19 19 19 19 19 19 19 19 19 19 19 19 19 19 19 19 19 19 18 18 19 18 18 18 18 18 18 18 18 18 18 18 17 17 17 18 18 18 18 18 18
20 19 19 19 19 19 19 19 19 19 19 19 19 19 19 19 19 19 19 18 18 18 18 18 18 18 18 18 18 18 18 18 18 17 17 17 17 18 18 18 18 17 17
20 19 19 19 19 19 19 19 19 19 19 19 19 19 19 19 19 19 19 18 18 18 18 18 18 18 18 18 18 18 18 18 18 18 18 17 18 18 18 18 17 17 17
20 19 19 19 19 19 19 19 19 19 19 19 19 19 19 19 19 19 19 18 18 18 18 18 18 18 18 18 18 18 18 18 18 18 18 18 18 18 18 18 17 17 17
19 19 19 19 19 19 19 19 19 19 19 19 19 19 19 19 19 19 18 18 18 18 18 18 18 18 18 18 18 18 18 18 18 18 18 18 18 18 18 18 18 17 17
19 19 19 19 19 19 19 18 18 19 19 19 19 19 18 18 18 18 18 18 18 18 18 18 18 18 18 18 18 18 18 18 18 18 18 18 18 18 18 18 18 17 17
19 19 19 19 19 19 18 18 18 18 18 18 18 18 18 18 18 18 18 18 18 18 18 18 18 18 18 18 18 18 18 18 18 18 18 18 18 18 18 18 18 18 17
20 19 19 19 19 19 19 18 18 18 18 18 18 18 18 18 18 18 18 18 18 18 17 18 17 17 17 18 18 18 18 18 18 18 18 18 18 18 18 18 18 18 17
19 19 19 18 18 18 18 18 18 18 18 18 18 18 18 18 18 18 18 18 18 18 17 17 17 17 17 17 18 18 18 18 18 18 18 18 18 18 18 18 18 18 18
19 19 19 18 18 18 18 18 18 18 18 18 18 18 18 18 18 18 18 18 18 18 18 17 17 17 17 17 17 18 18 18 18 18 18 18 18 18 18 18 18 18 18
19 19 19 18 18 19 18 18 18 18 18 18 18 18 18 18 18 18 18 18 18 18 18 17 17 17 17 17 17 18 18 18 18 18 18 18 18 18 18 18 18 18 18
19 19 19 19 18 18 18 18 18 18 18 18 18 18 18 18 18 18 18 18 18 18 18 18 17 17 17 17 17 18 18 18 18 18 18 18 18 18 18 18 18 18 18
19 19 19 19 18 19 18 18 18 18 18 18 18 18 18 18 18 18 18 18 18 18 18 18 18 17 17 18 18 18 18 18 18 18 18 18 18 18 18 18 18 18 18
19 19 19 19 18 18 18 18 18 18 18 18 18 18 18 18 18 18 18 18 18 18 18 18 18 18 17 18 18 18 18 18 18 18 18 18 18 18 18 18 18 18 18
19 19 19 19 19 19 18 19 18 18 18 18 18 18 18 18 18 18 18 18 18 18 18 18 17 18 18 18 18 18 18 18 18 18 18 18 18 18 18 18 18 18 18
19 19 19 19 19 19 18 18 18 18 18 18 18 18 18 18 18 18 18 18 18 18 18 18 18 18 18 17 18 18 18 18 18 18 18 18 18 18 18 18 18 18 18
19 19 19 19 19 19 19 19 19 18 18 18 18 18 18 18 18 18 18 18 18 18 18 17 18 18 18 18 18 18 18 18 18 18 18 18 18 18 18 18 18 18 18
20 19 19 19 19 19 19 19 19 19 18 18 18 18 18 18 18 18 18 18 18 18 18 18 18 18 18 18 18 18 19 19 19 19 18 18 18 18 18 18 18 18 18
20 20 19 20 20 20 19 19 19 19 19 19 18 18 18 18 18 18 18 18 18 18 18 18 18 17 17 18 17 18 18 18 18 19 18 18 18 18 18 18 18 18 18
20 20 20 20 20 19 19 19 19 19 18 18 18 18 18 18 18 18 18 18 18 18 18 18 18 17 18 18 18 18 18 18 18 18 19 18 18 18 18 18 18 18 18
20 20 20 20 20 19 19 19 19 19 19 18 18 18 18 18 18 18 18 18 18 18 18 18 18 18 18 17 17 18 18 18 18 18 18 18 18 18 18 18 18 18 18
Wind_Speed
6 8 12 11 14 16 16 16 17 17 18 18 18 18 18 19 19 19 19 19 19 18 18 17 16 15 15 14 14 14 14 14 14 14 13 14 13 13 13 12 11 13 14
7 10 13 12 14 15 16 16 16 17 17 17 18 18 18 18 18 18 18 18 18 18 17 16 15 15 14 14 14 14 13 13 13 13 13 13 12 11 11 9 8 13 13
8 10 13 12 12 14 15 15 16 17 17 17 17 17 18 18 18 18 17 17 17 17 16 15 15 14 14 14 13 13 13 13 12 11 11 11 12 11 11 11 12 14 12
8 9 11 13 12 13 15 15 16 16 16 17 17 17 18 18 17 17 17 16 16 16 15 15 14 13 13 13 12 12 12 12 11 10 8 9 11 12 11 11 12 12 12
8 9 12 13 13 13 14 14 15 15 16 17 17 17 17 17 17 17 16 15 15 15 15 14 13 13 12 12 12 11 11 11 9 7 7 8 10 12 11 11 11 11 11
8 9 12 13 13 14 14 14 14 14 15 16 16 16 16 16 16 16 15 14 15 15 15 14 13 12 12 11 11 10 9 9 9 7 7 7 9 12 10 10 11 11 10
8 9 13 13 13 14 14 13 13 14 14 15 15 15 15 16 16 16 16 14 14 14 14 13 12 11 11 10 10 9 8 7 5 7 7 7 9 11 10 9 10 10 9
8 9 12 13 13 14 14 13 13 14 14 14 14 14 14 15 15 15 15 15 14 14 13 12 11 11 10 9 9 9 8 6 6 6 6 7 11 10 9 9 10 9 9
7 8 9 11 13 14 13 13 13 13 14 14 13 13 13 14 14 15 15 15 14 13 12 11 11 10 9 8 8 8 7 5 4 5 6 7 11 9 9 9 9 9 9
7 7 7 9 11 11 13 13 13 13 13 13 13 13 13 13 13 14 15 14 14 13 12 11 10 8 7 7 7 7 7 7 5 5 5 8 11 9 9 9 9 9 9
8 7 6 7 8 9 10 12 12 13 12 12 12 13 12 11 11 12 12 13 13 12 11 10 9 8 7 8 7 7 8 5 4 3 4 9 9 9 9 9 9 9 9
7 7 6 6 7 7 8 9 9 9 10 9 9 10 9 8 8 9 12 12 12 12 12 10 9 9 8 7 9 9 5 4 3 3 6 9 8 8 9 9 9 9 9
7 7 6 5 5 5 6 6 6 6 7 8 9 9 8 7 7 7 8 10 11 12 9 10 9 6 4 3 3 3 2 2 1 2 6 9 8 8 9 9 10 9 9
7 6 5 6 4 5 5 5 6 5 5 6 7 8 7 5 5 5 5 6 7 7 5 5 4 4 3 2 2 1 2 2 2 1 5 9 8 8 8 9 9 10 9
6 6 5 5 5 4 4 4 5 5 5 5 6 6 6 5 5 5 4 4 5 6 6 4 4 3 2 2 2 2 2 1 2 2 4 8 8 8 8 8 9 9 9
6 5 5 5 5 5 4 4 4 5 5 4 5 6 6 5 5 4 4 4 4 5 5 4 3 3 2 2 2 2 2 2 2 3 2 6 9 9 9 9 9 9 9
6 5 5 5 5 5 5 5 5 5 5 4 5 6 6 5 5 4 4 4 4 5 5 4 4 3 3 3 3 2 2 2 2 3 3 3 6 10 10 9 8 8 8
6 6 5 4 5 5 4 4 4 4 4 4 5 5 6 5 5 4 4 4 4 4 4 3 3 3 2 2 3 3 2 2 3 3 3 4 4 5 9 10 9 9 8
6 6 5 4 5 5 4 3 3 3 3 4 4 5 5 6 6 5 4 3 5 4 4 4 3 2 2 2 2 3 3 3 3 3 3 4 4 5 5 10 11 10 10
7 6 6 6 5 5 5 4 3 4 4 4 4 4 5 5 6 5 4 4 5 4 4 3 3 3 3 3 3 3 3 3 3 3 4 4 5 6 6 6 8 10 11
7 7 6 6 6 5 5 4 4 5 4 4 4 5 6 5 6 5 4 4 5 4 4 4 4 5 4 3 3 2 3 4 4 4 4 4 4 5 5 5 6 5 7
8 8 7 7 7 7 5 4 4 3 3 4 3 4 5 6 6 6 6 5 5 4 5 5 5 4 4 4 3 2 3 4 4 5 4 4 4 4 5 5 5 6 6
9 9 7 8 8 7 6 5 4 3 3 3 4 4 5 6 6 6 6 5 5 5 5 6 5 6 4 4 3 3 3 3 2 4 5 4 4 4 4 4 6 6 7
10 9 8 8 8 8 7 6 6 5 4 3 3 3 4 5 6 6 7 6 5 5 5 6 6 5 6 4 3 4 4 3 3 3 4 4 4 4 5 5 5 6 7
9 9 8 8 8 8 7 6 6 5 4 3 3 3 3 4 5 6 6 6 6 5 6 6 5 6 5 5 5 4 4 4 6 5 4 4 4 4 4 5 5 5 6
8 8 8 8 7 7 7 6 6 5 4 4 4 3 4 3 4 5 6 6 6 6 6 6 6 8 6 6 6 5 5 5 4 4 5 5 4 4 4 4 5 5 5
Wind_Direction
126 126 124 125 136 137 137 136 135 135 136 136 134 133 132 132 131 131 130 129 128 127 126 125 125 124 123 123 122 121 120 121 121 119 118 116 117 117 119 126 132 116 115
121 128 127 124 130 137 139 138 137 137 137 138 137 135 134 133 132 132 131 130 130 129 127 126 126 124 123 121 122 122 122 123 124 125 127 124 121 122 121 118 102 113 122
121 129 134 132 133 136 138 138 138 137 136 138 139 139 137 135 133 132 132 132 132 132 129 128 126 125 124 122 123 126 127 127 129 138 152 135 126 126 123 117 113 121 125
124 131 133 131 135 136 138 139 139 139 139 140 142 143 141 138 136 135 134 134 133 133 131 130 129 128 126 125 125 129 133 133 139 167 153 127 127 126 130 127 127 130 130
124 129 129 135 137 136 138 139 139 139 140 141 142 142 142 141 140 137 136 136 135 134 133 132 132 131 128 128 130 132 135 140 158 181 126 123 122 130 137 137 137 136 136
128 133 130 137 137 137 138 140 140 140 140 141 141 141 143 142 142 139 137 139 139 139 138 138 137 134 131 131 134 137 141 153 183 139 126 130 127 137 147 147 146 144 143
128 130 133 138 139 138 139 142 142 140 139 140 140 140 141 143 143 141 140 141 142 142 142 141 140 137 136 137 139 143 147 175 165 130 135 133 123 138 153 156 154 153 154
132 134 135 142 143 142 142 144 143 142 141 142 143 143 144 146 147 146 144 144 146 145 144 143 142 140 140 141 144 149 160 198 155 141 144 133 127 147 158 162 161 162 164
126 134 138 145 147 149 148 146 144 143 142 144 147 146 149 150 150 149 148 149 150 148 148 147 146 147 146 148 154 159 169 210 186 145 147 134 137 157 166 170 170 171 172
114 124 130 139 144 149 148 148 146 145 146 148 151 152 154 155 154 155 156 153 153 152 151 150 149 148 151 154 159 162 175 203 184 157 151 134 146 167 176 178 179 180 181
110 114 119 131 141 143 142 145 150 152 153 157 156 156 162 160 155 160 152 155 157 155 154 152 151 153 164 166 164 171 192 193 164 164 148 130 161 180 186 187 189 191 191
117 117 120 128 136 137 136 140 151 152 152 158 154 158 160 155 157 153 152 160 160 161 160 157 159 168 188 170 166 183 194 182 176 173 145 147 177 192 193 191 194 197 198
123 120 125 128 129 128 132 140 141 142 148 153 154 158 156 157 158 156 158 162 163 168 166 162 175 174 172 157 179 183 182 211 206 179 147 160 187 199 199 196 198 201 203
124 126 130 131 133 133 135 138 146 148 152 150 150 162 159 160 162 153 158 162 167 166 161 173 170 159 159 168 191 198 207 240 243 172 152 166 190 200 202 199 200 205 209
131 133 131 133 138 143 147 159 150 153 157 153 152 158 164 164 161 156 156 164 169 163 167 173 166 157 172 179 215 228 239 246 256 234 161 166 187 199 204 203 204 209 216
141 141 141 143 147 156 164 165 159 158 160 163 160 163 174 169 162 167 165 164 172 176 172 173 169 177 202 203 229 245 256 252 237 245 218 170 183 195 201 204 207 214 223
150 149 153 158 160 165 168 168 166 169 164 166 163 167 178 177 168 170 169 174 178 181 182 186 182 193 206 216 227 240 244 252 252 239 233 206 187 191 197 204 211 217 223
155 156 165 167 157 159 163 173 170 175 171 173 172 172 181 180 178 183 182 179 174 186 191 185 195 197 212 234 233 238 239 229 234 227 223 213 212 200 190 197 208 215 219
163 164 169 175 169 167 165 172 175 178 187 184 179 182 181 187 189 195 192 182 188 194 196 201 185 202 209 225 240 226 225 221 224 222 224 227 223 223 211 187 202 211 218
168 170 173 178 178 180 179 181 183 185 188 191 190 187 191 192 193 203 195 188 199 198 200 201 197 209 214 220 240 231 227 224 223 217 225 222 223 226 225 215 206 205 212
173 177 180 184 184 192 190 192 187 187 189 186 190 188 193 197 195 203 207 192 204 203 205 204 201 205 208 214 233 233 225 220 223 214 229 239 228 229 226 228 235 229 208
182 186 187 190 191 199 197 205 204 198 198 191 196 188 199 198 197 198 204 206 202 202 204 205 208 218 214 208 228 234 227 214 216 218 223 226 236 235 236 230 230 233 248
189 193 196 199 197 199 197 198 191 186 201 197 199 199 206 206 204 209 207 217 214 216 207 211 212 218 226 225 226 237 245 242 226 208 214 220 230 243 246 248 239 234 237
193 191 195 199 197 195 196 201 197 198 203 204 207 203 200 205 210 210 213 214 216 222 215 219 210 217 222 225 225 237 252 271 256 237 223 225 236 243 250 254 247 239 239
192 190 188 190 191 190 195 198 205 215 213 208 211 202 212 204 208 212 216 217 215 222 220 227 218 226 227 232 235 235 234 238 245 257 256 247 242 244 243 246 250 244 238
187 186 184 183 186 187 193 198 202 214 221 227 226 227 222 216 212 217 221 218 220 221 217 222 223 223 231 237 241 238 236 240 240 247 259 260 257 252 248 250 247 242 236
Height
1504 1504 1502 1499 1501 1507 1510 1512 1514 1516 1518 1520 1522 1524 1526 1528 1531 1533 1535 1537 1539 1541 1543 1545 1547 1549 1550 1552 1553 1554 1555 1557 1558 1559 1560 1561 1561 1562 1563 1564 1565 1566 1566
1505 1506 1505 1505 1507 1510 1512 1514 1516 1518 1520 1522 1524 1526 1529 1531 1533 1535 1537 1539 1541 1543 1545 1547 1549 1551 1552 1553 1555 1556 1557 1558 1559 1560 1561 1562 1563 1564 1565 1566 1567 1567 1567
1507 1508 1508 1509 1511 1513 1515 1516 1518 1520 1522 1524 1526 1528 1531 1533 1535 1537 1539 1541 1543 1545 1547 1549 1551 1552 1554 1555 1556 1557 1559 1560 1561 1562 1563 1565 1565 1565 1566 1567 1568 1568 1569
1509 1510 1510 1511 1513 1515 1517 1518 1520 1522 1524 1526 1528 1530 1532 1534 1537 1539 1541 1543 1545 1547 1549 1551 1552 1554 1555 1556 1558 1559 1560 1561 1562 1563 1566 1568 1567 1567 1568 1568 1569 1570 1571
1510 1512 1512 1513 1515 1517 1518 1520 1522 1524 1526 1528 1530 1532 1534 1536 1538 1541 1543 1545 1547 1548 1550 1552 1554 1555 1557 1558 1559 1560 1561 1562 1563 1565 1568 1568 1568 1568 1569 1570 1570 1571 1572
1512 1513 1514 1515 1516 1518 1520 1522 1524 1525 1527 1529 1532 1534 1536 1538 1540 1542 1544 1546 1548 1550 1551 1553 1555 1557 1558 1559 1560 1561 1562 1563 1565 1568 1568 1569 1569 1569 1570 1571 1571 1572 1573
1513 1515 1516 1516 1518 1520 1521 1523 1525 1526 1528 1531 1533 1535 1537 1539 1541 1543 1545 1547 1549 1551 1553 1555 1556 1558 1559 1561 1562 1563 1564 1564 1567 1568 1569 1570 1570 1570 1570 1571 1572 1573 1574
1514 1516 1517 1518 1519 1521 1523 1524 1526 1528 1530 1532 1534 1536 1538 1541 1542 1544 1546 1548 1550 1552 1554 1555 1557 1559 1560 1562 1563 1564 1564 1565 1568 1569 1570 1571 1570 1570 1571 1572 1573 1573 1574
1514 1516 1518 1520 1521 1522 1524 1525 1527 1529 1531 1533 1535 1537 1540 1542 1543 1545 1547 1549 1550 1552 1554 1556 1558 1559 1561 1562 1563 1564 1565 1566 1569 1570 1571 1571 1570 1571 1572 1572 1573 1573 1574
1515 1517 1519 1521 1523 1524 1526 1527 1529 1531 1533 1535 1536 1538 1540 1542 1544 1546 1548 1549 1551 1553 1555 1557 1558 1560 1561 1562 1563 1564 1565 1567 1569 1571 1571 1571 1570 1571 1572 1572 1573 1574 1574
1517 1519 1521 1523 1524 1526 1528 1528 1530 1532 1534 1535 1537 1539 1541 1544 1545 1547 1549 1550 1552 1554 1555 1557 1559 1560 1561 1562 1563 1564 1566 1568 1570 1571 1571 1570 1570 1571 1571 1572 1572 1573 1574
1520 1522 1523 1524 1525 1527 1529 1530 1532 1533 1535 1536 1538 1540 1542 1544 1546 1548 1549 1551 1553 1554 1556 1557 1559 1560 1561 1562 1563 1564 1567 1568 1569 1570 1570 1570 1570 1570 1571 1571 1572 1572 1573
1523 1523 1525 1525 1526 1528 1529 1531 1532 1534 1535 1537 1539 1541 1542 1544 1546 1548 1549 1551 1553 1555 1556 1557 1559 1560 1561 1562 1563 1565 1566 1568 1569 1570 1570 1569 1569 1570 1570 1571 1571 1572 1572
1524 1525 1526 1527 1527 1528 1530 1532 1533 1534 1536 1538 1539 1541 1543 1545 1546 1548 1549 1551 1553 1555 1556 1557 1559 1560 1561 1562 1563 1565 1566 1567 1568 1569 1569 1568 1569 1569 1570 1570 1571 1571 1572
1526 1526 1527 1527 1528 1529 1530 1532 1534 1535 1537 1538 1540 1541 1543 1545 1546 1548 1549 1551 1553 1555 1556 1557 1558 1560 1560 1561 1563 1564 1565 1566 1567 1568 1568 1568 1568 1568 1569 1569 1570 1570 1571
1526 1527 1528 1528 1528 1529 1530 1532 1534 1535 1536 1539 1540 1541 1543 1545 1546 1548 1550 1551 1553 1555 1556 1557 1559 1559 1560 1561 1562 1563 1564 1565 1566 1566 1567 1567 1567 1568 1568 1569 1569 1569 1569
1527 1528 1528 1529 1529 1529 1531 1532 1534 1536 1537 1539 1540 1541 1543 1545 1546 1548 1550 1551 1553 1554 1555 1557 1558 1559 1560 1561 1562 1563 1563 1564 1565 1565 1566 1567 1567 1567 1567 1568 1568 1568 1568
1527 1528 1528 1530 1530 1530 1531 1532 1534 1536 1537 1538 1540 1541 1542 1544 1545 1547 1549 1551 1552 1554 1555 1556 1558 1559 1560 1560 1561 1562 1563 1563 1563 1564 1565 1566 1566 1567 1567 1567 1567 1567 1567
1526 1527 1528 1529 1530 1531 1531 1532 1533 1535 1536 1538 1540 1541 1542 1543 1545 1547 1548 1550 1551 1553 1555 1556 1557 1558 1558 1559 1560 1561 1562 1562 1562 1563 1564 1564 1565 1565 1566 1565 1565 1565 1565
1526 1527 1528 1529 1530 1530 1531 1532 1533 1534 1536 1537 1539 1540 1541 1542 1544 1546 1548 1549 1551 1552 1554 1555 1555 1556 1557 1558 1559 1560 1560 1561 1561 1562 1562 1563 1563 1563 1564 1564 1563 1563 1563
1524 1525 1526 1528 1529 1529 1531 1532 1533 1534 1535 1536 1537 1538 1540 1541 1543 1544 1547 1548 1549 1551 1552 1553 1554 1555 1556 1557 1558 1559 1559 1559 1560 1560 1561 1561 1562 1562 1562 1561 1561 1561 1561
1523 1524 1525 1526 1527 1528 1529 1531 1532 1533 1534 1535 1537 1537 1538 1540 1541 1543 1544 1546 1548 1549 1550 1551 1552 1554 1555 1556 1556 1557 1558 1559 1558 1559 1559 1559 1559 1559 1559 1559 1559 1558 1559
1521 1522 1523 1524 1525 1527 1528 1530 1531 1532 1533 1535 1535 1536 1537 1538 1539 1541 1543 1545 1546 1547 1549 1549 1550 1551 1553 1554 1554 1555 1555 1555 1556 1557 1556 1556 1556 1556 1556 1556 1556 1555 1555
1519 1521 1521 1522 1523 1525 1527 1529 1530 1531 1533 1534 1534 1535 1535 1536 1537 1539 1541 1543 1544 1545 1546 1547 1549 1549 1550 1551 1552 1552 1553 1553 1553 1554 1554 1554 1553 1553 1553 1553 1553 1552 1552
1517 1519 1519 1519 1521 1524 1526 1527 1528 1530 1532 1533 1533 1534 1534 1535 1536 1538 1539 1540 1541 1543 1544 1545 1546 1547 1548 1548 1549 1550 1550 1550 1551 1551 1551 1551 1551 1551 1550 1550 1550 1550 1549
1515 1517 1518 1518 1519 1522 1524 1526 1527 1528 1530 1532 1532 1533 1534 1535 1535 1536 1537 1538 1539 1540 1541 1542 1543 1544 1544 1545 1546 1547 1548 1548 1548 1548 1548 1547 1548 1548 1547 1547 1547 1547 1546